Wind_Speed
24 23 22 22 23 23 22 22 23 23 23 23 22 22 22 22 23 23 23 23 23 24 24 24 25 24 24 25 26 26 26 27 26 26 26 26 26 26 26 25 26 27 27
25 24 24 24 23 24 24 23 24 24 23 23 23 23 23 24 23 24 24 24 24 25 25 25 25 25 25 26 26 27 27 27 27 27 27 27 27 27 27 26 27 27 28
26 25 25 24 24 24 24 25 24 24 23 23 23 24 24 24 23 24 24 25 25 25 25 26 26 26 26 27 27 27 28 28 28 28 28 28 28 28 28 28 27 28 28
26 26 25 24 25 24 25 25 24 25 24 24 24 24 24 24 24 24 24 25 25 25 25 25 26 27 27 27 27 28 28 28 29 29 29 29 29 29 28 29 29 29 29
26 27 26 25 25 25 26 26 26 25 24 24 24 24 25 25 25 24 25 24 24 25 26 26 26 27 27 27 28 28 29 29 29 30 30 31 30 31 30 29 30 30 30
27 27 27 26 26 26 26 27 26 26 25 25 25 25 25 26 25 25 25 25 24 25 26 26 26 27 28 29 29 29 29 29 30 31 32 32 32 32 31 30 30 31 31
27 28 27 27 26 26 26 26 26 26 26 26 25 25 25 26 26 26 26 25 25 25 26 26 26 27 27 29 30 30 29 30 30 30 32 34 33 33 33 32 31 31 32
28 27 27 27 27 27 26 25 25 25 25 26 26 25 25 26 26 26 26 26 25 26 26 27 27 27 28 29 29 30 30 30 31 30 31 33 34 34 34 34 33 33 33
27 28 26 26 26 26 26 25 25 25 25 25 26 26 26 27 27 28 28 27 27 27 27 28 28 28 29 29 29 29 30 31 32 32 32 33 33 34 33 35 35 35 34
27 26 26 26 25 25 25 25 25 25 24 25 26 27 28 28 28 28 28 28 28 28 28 28 29 29 30 30 30 30 31 31 32 33 33 34 34 34 35 35 35 35 35
26 25 24 24 25 25 25 25 25 25 25 25 26 27 27 28 29 28 28 27 28 28 28 29 29 30 31 31 32 33 33 33 34 34 34 35 35 35 36 36 36 36 36
24 23 23 23 24 25 25 25 24 25 25 26 26 27 27 28 28 28 27 27 28 28 29 29 30 31 31 32 32 33 34 35 35 36 36 36 36 36 37 36 36 36 37
24 23 22 22 22 22 22 23 23 24 25 25 25 26 26 26 27 27 27 27 27 28 29 30 31 32 32 33 33 34 35 35 35 36 37 37 37 37 37 37 38 38 37
23 22 22 22 21 21 21 22 23 24 24 24 24 24 24 24 25 26 26 27 27 28 30 31 32 32 32 33 33 34 35 36 35 35 36 37 38 38 37 37 37 38 38
21 21 21 20 19 20 21 21 22 22 22 23 23 23 23 23 24 25 25 26 28 28 29 30 31 31 32 32 33 34 34 35 36 36 36 38 38 38 38 38 38 38 38
20 19 20 19 18 19 19 20 20 21 21 22 23 23 23 23 24 24 25 27 28 28 28 29 29 30 32 33 33 34 35 36 36 37 37 37 38 38 38 37 37 37 38
19 19 19 18 18 18 19 20 21 21 21 22 23 23 24 24 24 24 25 26 27 28 28 28 29 30 30 30 30 32 33 34 35 36 37 37 38 38 38 38 37 38 39
20 19 19 19 18 18 19 20 20 21 21 22 23 24 24 24 23 23 24 26 27 28 28 27 27 28 29 28 28 29 31 32 32 34 35 36 36 37 37 37 38 39 39
19 19 19 19 18 18 18 19 19 20 21 22 23 24 24 23 23 23 24 25 26 27 27 27 26 26 26 27 27 28 29 30 31 32 34 35 35 36 37 37 38 39 39
19 19 18 18 17 17 18 18 19 19 20 20 21 22 23 23 23 24 24 24 25 25 25 24 24 25 26 27 28 28 28 29 30 31 31 32 34 36 37 37 38 39 39
18 18 17 17 17 17 17 18 18 19 18 19 19 20 21 21 22 23 22 22 23 23 23 24 24 25 25 26 28 28 28 28 29 30 30 31 33 35 36 36 37 38 39
17 16 16 16 16 16 16 16 17 17 17 17 18 18 19 19 20 21 21 21 22 22 22 22 23 24 24 24 25 26 27 28 29 29 30 31 32 33 34 35 36 36 38
16 15 14 15 15 15 15 16 15 15 16 16 17 18 19 19 19 19 19 20 20 20 20 21 21 21 22 21 21 23 25 26 27 27 28 29 31 32 34 35 36 37 37
14 13 13 13 13 14 14 14 15 15 16 17 18 18 19 19 18 18 18 18 18 18 18 18 18 19 19 19 20 20 22 22 23 25 26 27 29 30 32 34 35 35 36
13 12 12 11 12 12 12 13 14 14 15 16 17 17 17 17 17 17 17 17 17 16 16 17 17 17 17 18 19 19 20 21 21 23 25 26 28 29 30 32 32 33 34
12 11 11 11 11 11 12 12 13 14 14 15 16 16 16 16 16 16 16 16 16 16 16 16 16 16 17 18 19 20 21 22 22 23 24 26 27 28 29 29 30 30 31
Wind_Direction
290 287 289 288 286 284 280 279 279 280 279 276 274 272 270 269 268 265 266 264 262 260 257 255 252 251 250 249 247 245 245 245 244 243 242 242 241 240 242 243 241 238 238
288 288 289 288 286 285 279 280 280 279 278 277 275 273 271 271 269 264 265 264 262 261 258 255 253 252 252 250 248 246 246 247 245 244 243 241 241 241 241 242 242 240 239
287 287 287 286 286 285 281 280 279 278 276 275 274 272 272 272 271 268 265 264 263 260 259 256 253 252 253 251 248 247 247 247 247 245 244 243 242 243 244 243 243 241 239
287 286 286 286 288 284 282 282 280 277 274 272 272 271 270 270 271 270 267 267 264 261 259 256 254 253 253 252 251 250 248 247 247 246 245 244 244 244 245 245 244 243 240
284 284 284 285 285 285 282 281 280 277 275 273 271 271 270 269 270 269 266 265 263 260 258 257 255 255 254 254 254 252 250 249 248 247 246 245 245 245 244 243 244 243 241
285 283 283 285 285 284 282 281 279 275 273 271 271 271 272 270 270 271 269 265 262 260 260 258 255 255 256 256 255 255 254 252 250 249 247 245 246 245 245 244 244 243 242
284 282 282 283 284 284 283 281 278 274 271 271 272 274 273 272 270 271 270 267 263 262 261 259 257 257 257 256 255 254 255 254 251 252 250 247 247 246 245 245 244 243 244
286 283 281 282 283 283 284 283 279 276 274 273 274 275 274 272 271 271 269 267 265 263 262 260 258 258 258 258 255 254 253 253 252 253 251 249 248 247 246 245 244 244 244
288 286 283 284 283 282 283 283 279 277 276 276 276 275 274 271 270 269 268 267 265 264 264 261 260 259 260 259 258 255 252 252 252 252 252 251 249 248 248 247 245 244 243
290 289 286 285 283 282 282 282 279 276 275 275 277 276 275 271 269 268 267 267 266 266 265 263 262 261 260 259 258 256 253 252 252 251 251 250 249 248 247 248 247 246 245
288 288 287 285 284 283 282 281 278 276 276 276 277 277 276 273 272 272 267 267 268 268 268 265 263 262 261 259 259 256 254 253 253 252 252 251 250 249 248 248 247 247 246
287 286 285 286 285 284 283 282 279 277 278 278 277 278 278 275 272 270 269 268 268 268 269 268 265 264 262 261 260 257 254 253 254 253 252 251 252 251 250 249 248 248 246
287 286 285 285 285 285 287 285 280 278 278 279 280 280 278 276 273 272 271 271 270 268 268 267 267 265 264 262 261 258 255 253 253 253 253 252 252 252 251 250 249 249 248
287 285 285 285 285 285 286 285 281 279 279 280 281 282 280 277 276 273 273 273 273 271 270 269 267 266 265 263 262 259 256 254 253 254 253 252 252 252 252 250 250 250 250
287 286 288 288 288 288 287 287 284 281 279 280 281 282 282 280 277 275 274 275 275 274 273 272 269 266 264 263 262 259 258 256 255 255 254 252 251 252 251 252 251 250 249
289 291 292 290 289 290 289 290 291 287 284 284 284 284 284 282 279 275 275 276 276 275 275 273 269 267 266 265 262 259 259 257 256 255 254 253 252 251 251 252 252 251 251
293 292 293 294 293 292 290 291 291 287 286 287 287 287 285 284 282 278 278 277 278 278 277 275 271 269 267 265 263 261 261 259 258 256 255 254 253 253 253 252 252 252 253
294 295 294 296 295 293 294 294 291 288 288 290 290 289 288 286 284 283 282 280 279 278 278 275 273 271 267 264 263 262 262 261 260 258 255 254 255 254 253 253 253 253 253
295 295 296 296 295 292 293 296 293 290 290 291 290 290 289 288 287 286 286 284 282 280 279 277 273 271 269 265 264 264 263 262 261 260 257 255 255 255 254 254 254 254 254
294 294 296 297 295 293 292 295 294 294 293 293 292 291 290 290 289 287 287 285 283 281 281 279 277 274 272 269 267 264 263 262 262 261 260 258 256 256 256 255 255 254 254
294 296 298 297 294 296 296 297 297 297 296 295 296 297 297 297 293 291 288 286 285 283 281 279 278 276 275 271 268 265 265 265 264 262 260 259 258 258 258 257 256 255 254
299 298 297 295 295 298 300 302 304 304 304 304 304 304 304 302 299 296 294 291 289 286 283 280 280 278 277 274 270 266 265 264 263 262 260 259 259 260 259 258 257 256 254
304 302 299 297 297 298 299 303 306 307 310 311 310 307 307 308 306 302 300 298 293 289 286 284 283 281 279 276 272 266 262 263 262 260 261 262 261 261 261 259 258 258 256
307 309 306 303 303 303 301 304 307 308 312 312 310 310 312 313 313 307 304 302 299 295 291 289 289 288 284 279 276 272 267 265 263 262 263 265 265 264 262 260 259 257 255
314 315 310 309 310 309 308 308 309 310 312 314 314 315 317 318 318 313 309 308 306 302 298 295 295 292 287 286 284 276 272 270 267 265 266 267 267 264 262 261 259 258 256
316 316 314 313 314 312 312 310 313 314 316 318 319 320 321 322 324 324 320 317 315 309 302 297 296 292 289 289 287 283 279 278 275 271 269 268 266 264 261 261 260 257 255
Height
5829 5827 5825 5825 5823 5821 5820 5819 5818 5817 5816 5816 5815 5815 5815 5815 5815 5815 5816 5816 5817 5817 5818 5819 5820 5820 5822 5823 5825 5826 5827 5829 5830 5832 5833 5835 5837 5839 5841 5843 5845 5847 5849
5824 5821 5820 5819 5818 5816 5816 5814 5813 5812 5811 5810 5810 5809 5809 5809 5809 5809 5809 5810 5810 5811 5811 5812 5813 5815 5816 5817 5819 5820 5821 5823 5824 5826 5828 5829 5831 5833 5835 5837 5839 5841 5843
5818 5816 5814 5812 5812 5811 5810 5808 5807 5805 5805 5804 5804 5804 5803 5803 5803 5803 5803 5803 5804 5804 5805 5806 5807 5808 5810 5811 5812 5813 5815 5816 5818 5819 5821 5823 5825 5827 5829 5831 5833 5835 5837
5811 5809 5808 5807 5805 5804 5804 5802 5801 5800 5799 5798 5798 5797 5797 5797 5797 5797 5797 5797 5797 5798 5798 5799 5801 5802 5803 5804 5805 5806 5808 5810 5811 5813 5815 5816 5819 5820 5822 5824 5826 5829 5831
5805 5803 5802 5801 5799 5798 5797 5796 5795 5794 5793 5792 5792 5791 5791 5791 5791 5790 5791 5791 5791 5791 5792 5793 5794 5795 5796 5797 5798 5799 5801 5802 5804 5806 5808 5809 5811 5814 5816 5818 5820 5822 5824
5798 5797 5795 5794 5793 5791 5790 5789 5788 5787 5786 5786 5785 5785 5785 5784 5784 5784 5784 5784 5784 5785 5785 5786 5787 5788 5789 5790 5791 5792 5793 5795 5797 5798 5800 5802 5804 5806 5808 5810 5812 5815 5817
5792 5790 5789 5787 5786 5784 5783 5781 5781 5780 5780 5780 5779 5779 5778 5778 5778 5778 5778 5778 5778 5778 5779 5779 5780 5781 5782 5783 5784 5785 5786 5788 5789 5791 5792 5794 5796 5798 5800 5803 5805 5807 5809
5785 5783 5782 5780 5779 5778 5776 5775 5774 5773 5773 5773 5773 5772 5772 5772 5771 5771 5771 5771 5771 5771 5772 5772 5773 5774 5774 5775 5776 5777 5779 5780 5781 5783 5785 5786 5788 5790 5792 5794 5797 5799 5801
5778 5776 5775 5773 5772 5771 5769 5768 5767 5766 5766 5766 5766 5765 5765 5765 5764 5764 5764 5764 5764 5764 5764 5765 5766 5766 5766 5767 5768 5769 5771 5772 5773 5775 5777 5778 5780 5782 5783 5786 5788 5790 5792
5771 5770 5768 5767 5765 5764 5763 5762 5761 5760 5760 5759 5759 5758 5758 5757 5757 5757 5757 5756 5756 5756 5757 5757 5758 5758 5759 5759 5760 5761 5762 5764 5765 5766 5768 5770 5771 5773 5775 5777 5779 5781 5784
5764 5763 5761 5760 5759 5757 5756 5755 5754 5754 5753 5753 5752 5751 5750 5748 5748 5748 5749 5749 5748 5748 5749 5749 5749 5750 5750 5751 5752 5752 5754 5755 5756 5758 5759 5761 5763 5765 5766 5768 5770 5772 5775
5758 5756 5755 5754 5752 5751 5750 5749 5748 5747 5746 5745 5744 5743 5742 5741 5741 5741 5741 5741 5741 5741 5741 5741 5741 5741 5741 5742 5743 5744 5744 5746 5747 5749 5750 5752 5754 5755 5757 5759 5761 5763 5765
5751 5750 5748 5747 5745 5744 5743 5742 5741 5740 5739 5738 5737 5736 5734 5734 5733 5733 5733 5733 5733 5733 5732 5732 5732 5732 5732 5732 5733 5734 5735 5736 5738 5739 5741 5743 5744 5746 5748 5749 5751 5753 5755
5744 5743 5742 5741 5739 5738 5737 5735 5734 5733 5732 5731 5730 5729 5727 5726 5725 5725 5725 5725 5725 5725 5724 5724 5723 5723 5723 5723 5723 5723 5724 5726 5728 5729 5731 5733 5735 5737 5738 5740 5741 5743 5745
5738 5737 5736 5735 5733 5732 5731 5729 5728 5727 5726 5725 5724 5722 5720 5719 5718 5718 5717 5717 5717 5716 5716 5715 5714 5714 5713 5713 5713 5713 5714 5716 5717 5719 5721 5723 5725 5726 5728 5730 5732 5733 5735
5732 5731 5731 5729 5727 5726 5725 5723 5722 5721 5720 5718 5717 5716 5714 5713 5711 5711 5710 5709 5708 5707 5707 5705 5704 5704 5704 5703 5703 5704 5704 5705 5707 5708 5710 5712 5714 5716 5718 5720 5722 5724 5726
5727 5726 5725 5723 5722 5721 5719 5718 5716 5715 5714 5712 5710 5709 5707 5706 5704 5703 5702 5701 5700 5699 5698 5697 5695 5695 5694 5694 5694 5695 5695 5696 5697 5698 5700 5701 5703 5706 5707 5709 5712 5714 5716
5722 5721 5719 5718 5716 5715 5714 5712 5710 5709 5707 5706 5704 5702 5700 5699 5698 5696 5694 5693 5692 5690 5688 5687 5686 5686 5685 5685 5685 5685 5686 5686 5687 5688 5689 5691 5693 5695 5697 5699 5701 5703 5706
5717 5716 5714 5712 5711 5709 5708 5707 5705 5703 5701 5699 5697 5695 5693 5691 5690 5688 5687 5685 5683 5681 5680 5679 5678 5677 5677 5677 5677 5677 5676 5677 5677 5678 5679 5681 5683 5685 5687 5689 5691 5693 5695
5712 5711 5709 5707 5706 5704 5703 5701 5699 5697 5695 5693 5691 5689 5686 5684 5683 5681 5679 5677 5675 5674 5672 5671 5670 5669 5669 5668 5668 5668 5668 5668 5668 5669 5669 5671 5672 5674 5676 5678 5681 5682 5684
5707 5706 5704 5702 5701 5699 5698 5696 5694 5692 5689 5687 5685 5683 5680 5678 5675 5673 5671 5670 5668 5666 5665 5663 5662 5661 5660 5660 5659 5659 5659 5659 5660 5660 5660 5662 5663 5665 5666 5668 5669 5671 5673
5702 5700 5699 5697 5696 5694 5693 5691 5689 5687 5685 5682 5680 5677 5675 5672 5669 5666 5664 5662 5661 5659 5657 5656 5655 5654 5653 5652 5651 5651 5651 5651 5652 5652 5652 5653 5654 5655 5656 5658 5659 5660 5662
5697 5696 5694 5693 5691 5690 5689 5687 5685 5683 5680 5678 5675 5673 5670 5666 5663 5660 5658 5655 5654 5652 5651 5649 5648 5646 5645 5644 5644 5644 5643 5643 5643 5644 5644 5645 5645 5645 5646 5647 5649 5650 5650
5693 5692 5690 5688 5687 5686 5684 5683 5681 5678 5676 5674 5671 5668 5665 5661 5658 5655 5652 5650 5648 5646 5645 5643 5642 5640 5639 5638 5637 5637 5636 5636 5636 5636 5636 5637 5637 5637 5637 5638 5638 5639 5640
5690 5688 5686 5685 5683 5682 5680 5678 5677 5674 5672 5670 5667 5664 5661 5657 5654 5651 5648 5645 5643 5641 5639 5638 5637 5635 5633 5632 5631 5630 5630 5629 5629 5629 5629 5628 5628 5628 5628 5628 5628 5629 5630
5687 5685 5683 5682 5680 5679 5677 5675 5673 5671 5669 5666 5663 5660 5657 5653 5650 5647 5644 5641 5639 5637 5635 5633 5631 5630 5628 5627 5625 5624 5623 5623 5622 5622 5621 5620 5620 5619 5619 5619 5619 5619 5620